Location: Unspecified
(52.1384°N, 8.6525°W)
Time: 11:46:06
(UTC+00:00)

XW-2F - Pass Details

Date: 26 January 2021
Orbit: 500 x 519 km, 97.5° (Epoch: 24 February)

Event Time Altitude Azimuth Distance (km) Brightness Sun altitude
Rises 06:32:12 0° 17° (NNE) 2,662 ? -16.9°
Reaches altitude 10° 06:34:22 10° 23° (NNE) 1,769 ? -16.5°
Maximum altitude 06:38:05 49° 100° (E) 681 ? -16.0°
Drops below altitude 10° 06:41:46 10° 176° (S) 1,751 ? -15.4°
Sets 06:43:54 0° 182° (S) 2,632 ? -15.1°
